Tracking 20093 objects as of 16-Dec-2019
HD Live streaming from Space Station
objects crossing your sky now

FENGYUN 1C DEB

Track FENGYUN 1C DEB now!
10-day predictions


NORAD ID: 37917
Int'l Code: 1999-025ENS
Perigee: 842.3 km
Apogee: 917.2 km
Inclination: 99.0 °
Period: 102.4 minutes
Semi major axis: 7250 km
RCS: 0.0019 m2 (small)
Launch date: May 10, 1999
Source: People's Republic of China (PRC)
Launch site: Taiyaun Space Center, China (TSC)

Note: This is SATELLITE DEBRIS
aabbcc
Your satellite tracking list
Your tracking list is empty




NASA's NSSDC Master Catalog

Two Line Element Set (TLE):
1 37917U 99025ENS 19349.99936962  .00000128  00000-0  10314-3 0  9994
2 37917  98.9802  74.1750 0051664  74.4610 286.2254 14.06136451580488
Source of the keplerian elements: AFSPC